| time (UTC) | temp C | wind direction | speed KPH | gust KPH | rain 1hr cm | rain 24hr cm | rain mn cm | humidity % | barometer mb |
| 20260503202018 | 14 | 0 | 4.8 | 16.1 | 0.00 | 0.05 | 0.05 | 39 | 1019.4 |
| 20260503201043 | 14 | 0 | 4.8 | 14.5 | 0.00 | 0.05 | 0.05 | 40 | 1019.2 |
| 20260503200040 | 14 | 0 | 3.2 | 8.0 | 0.00 | 0.05 | 0.05 | 41 | 1019.2 |
| 20260503195019 | 14 | 0 | 3.2 | 9.7 | 0.00 | 0.05 | 0.05 | 41 | 1019.2 |
| 20260503194018 | 15 | 0.0 | 4.8 | 0.00 | 0.05 | 0.05 | 41 | 1019.2 | |
| 20260503193019 | 15 | 0.0 | 4.8 | 0.00 | 0.05 | 0.05 | 41 | 1019.2 | |
| 20260503192020 | 15 | 0 | 1.6 | 6.4 | 0.00 | 0.05 | 0.05 | 41 | 1019.2 |
| 20260503191041 | 15 | 0.0 | 3.2 | 0.00 | 0.05 | 0.05 | 40 | 1019.2 | |
| 20260503190018 | 15 | 0 | 1.6 | 8.0 | 0.00 | 0.05 | 0.05 | 40 | 1019.2 |
| 20260503185018 | 15 | 0 | 4.8 | 9.7 | 0.00 | 0.05 | 0.05 | 39 | 1019.2 |
| 20260503184040 | 16 | 0 | 1.6 | 8.0 | 0.00 | 0.05 | 0.05 | 39 | 1019.0 |
| 20260503183018 | 16 | 0 | 3.2 | 8.0 | 0.00 | 0.05 | 0.05 | 37 | 1018.7 |
| 20260503182020 | 16 | 0 | 3.2 | 14.5 | 0.00 | 0.05 | 0.05 | 37 | 1018.5 |
| 20260503181018 | 16 | 0 | 3.2 | 12.9 | 0.00 | 0.05 | 0.05 | 36 | 1018.3 |
| 20260503180018 | 16 | 0 | 3.2 | 8.0 | 0.00 | 0.05 | 0.05 | 36 | 1018.2 |
| 20260503175019 | 17 | 0 | 3.2 | 6.4 | 0.00 | 0.05 | 0.05 | 36 | 1018.3 |
| 20260503174018 | 17 | 0 | 1.6 | 6.4 | 0.00 | 0.05 | 0.05 | 36 | 1018.2 |
| 20260503173018 | 17 | 0 | 1.6 | 3.2 | 0.00 | 0.05 | 0.05 | 36 | 1018.2 |
| 20260503172020 | 17 | 0 | 1.6 | 3.2 | 0.00 | 0.05 | 0.05 | 35 | 1018.0 |
| 20260503171020 | 18 | 0 | 1.6 | 6.4 | 0.00 | 0.05 | 0.05 | 34 | 1017.9 |
| 20260503131019 | 16 | 0 | 3.2 | 9.7 | 0.00 | 0.08 | 0.05 | 41 | 1018.3 |
| 20260503081019 | 15 | 0 | 1.6 | 6.4 | 0.00 | 0.08 | 0.05 | 50 | 1019.9 |
| 20260503072019 | 13 | 0 | 1.6 | 8.0 | 0.00 | 0.08 | 0.05 | 69 | 1020.0 |
| 20260503071019 | 12 | 0 | 3.2 | 9.7 | 0.00 | 0.08 | 0.05 | 70 | 1019.8 |
| 20260503055019 | 10 | 0 | 4.8 | 6.4 | 0.05 | 0.08 | 0.05 | 75 | 1019.5 |
| 20260503054019 | 10 | 0 | 4.8 | 8.0 | 0.05 | 0.08 | 0.05 | 75 | 1019.5 |
| 20260503053020 | 10 | 0 | 8.0 | 12.9 | 0.05 | 0.08 | 0.05 | 75 | 1019.6 |
| 20260503052018 | 10 | 0 | 8.0 | 12.9 | 0.05 | 0.08 | 0.05 | 74 | 1019.6 |
| 20260503051020 | 10 | 0 | 9.7 | 16.1 | 0.05 | 0.05 | 0.05 | 73 | 1019.5 |
| 20260503050019 | 11 | 0 | 3.2 | 12.9 | 0.00 | 0.03 | 0.00 | 71 | 1019.1 |
| 20260503045041 | 11 | 0 | 6.4 | 16.1 | 0.00 | 0.03 | 0.00 | 71 | 1018.8 |
| 20260503044018 | 11 | 0 | 3.2 | 9.7 | 0.00 | 0.03 | 0.00 | 70 | 1018.8 |
| 20260503043019 | 11 | 0 | 1.6 | 6.4 | 0.00 | 0.03 | 0.00 | 69 | 1018.6 |
| 20260503042020 | 11 | 0 | 3.2 | 8.0 | 0.00 | 0.03 | 0.00 | 68 | 1018.7 |
| 20260503041041 | 11 | 0 | 1.6 | 4.8 | 0.00 | 0.03 | 0.00 | 68 | 1018.7 |
| 20260503040020 | 11 | 0 | 4.8 | 6.4 | 0.00 | 0.03 | 0.00 | 69 | 1018.6 |
| 20260503035020 | 10 | 0 | 4.8 | 8.0 | 0.00 | 0.03 | 0.00 | 70 | 1018.5 |
| 20260503034042 | 10 | 0.0 | 0.0 | 0.00 | 0.03 | 0.00 | 70 | 1018.4 | |
| 20260503033021 | 10 | 0.0 | 0.0 | 0.00 | 0.03 | 0.00 | 70 | 1018.2 | |
| 20260503032019 | 10 | 0 | 1.6 | 3.2 | 0.00 | 0.03 | 0.00 | 70 | 1018.1 |
| 20260503031019 | 10 | 0 | 1.6 | 4.8 | 0.00 | 0.03 | 0.00 | 69 | 1018.1 |
| 20260503030019 | 10 | 0 | 3.2 | 8.0 | 0.00 | 0.03 | 0.00 | 67 | 1018.1 |
| 20260503025020 | 10 | 0 | 1.6 | 8.0 | 0.00 | 0.03 | 0.00 | 67 | 1018.2 |
| 20260503024020 | 11 | 0 | 3.2 | 8.0 | 0.00 | 0.03 | 0.00 | 67 | 1018.3 |
| 20260503023018 | 11 | 0 | 1.6 | 4.8 | 0.00 | 0.03 | 0.00 | 67 | 1018.4 |
| 20260503022018 | 11 | 0 | 4.8 | 9.7 | 0.00 | 0.03 | 0.00 | 68 | 1018.4 |
| 20260503021042 | 11 | 0 | 3.2 | 6.4 | 0.00 | 0.03 | 0.00 | 68 | 1018.4 |
| 20260503020018 | 11 | 0 | 1.6 | 3.2 | 0.00 | 0.03 | 0.00 | 68 | 1018.2 |
| 20260503015018 | 11 | 0 | 1.6 | 4.8 | 0.00 | 0.03 | 0.00 | 68 | 1018.1 |
| 20260503014018 | 11 | 0 | 3.2 | 8.0 | 0.00 | 0.03 | 0.00 | 69 | 1018.0 |
| 20260503013018 | 11 | 0 | 3.2 | 6.4 | 0.00 | 0.03 | 0.00 | 70 | 1018.3 |
| 20260503012018 | 11 | 0 | 4.8 | 6.4 | 0.00 | 0.03 | 0.00 | 70 | 1018.4 |
| 20260503011041 | 10 | 0.0 | 3.2 | 0.00 | 0.03 | 0.00 | 70 | 1018.4 | |
| 20260503010018 | 11 | 0 | 1.6 | 4.8 | 0.00 | 0.03 | 0.00 | 70 | 1018.4 |
| 20260503005041 | 11 | 0.0 | 1.6 | 0.00 | 0.03 | 0.00 | 71 | 1018.4 | |
| 20260503004019 | 11 | 0.0 | 1.6 | 0.00 | 0.03 | 0.00 | 70 | 1018.5 | |
| 20260503003018 | 11 | 0.0 | 0.0 | 0.00 | 0.03 | 0.00 | 70 | 1018.6 | |
| 20260503002019 | 11 | 0.0 | 1.6 | 0.00 | 0.03 | 0.00 | 69 | 1018.7 | |
| 20260503001020 | 11 | 0.0 | 3.2 | 0.00 | 0.03 | 0.00 | 67 | 1018.8 | |
| 20260503000019 | 11 | 0 | 1.6 | 4.8 | 0.00 | 0.03 | 0.00 | 66 | 1018.8 |
| 20260502235018 | 11 | 0 | 3.2 | 8.0 | 0.00 | 0.03 | 0.00 | 66 | 1018.9 |
| 20260502234018 | 11 | 0 | 1.6 | 6.4 | 0.00 | 0.03 | 0.00 | 66 | 1019.0 |
| 20260502233018 | 11 | 0 | 3.2 | 8.0 | 0.00 | 0.03 | 0.00 | 66 | 1019.1 |
| 20260502232019 | 11 | 0 | 4.8 | 14.5 | 0.00 | 0.03 | 0.00 | 68 | 1019.2 |
| 20260502231018 | 11 | 0 | 3.2 | 8.0 | 0.00 | 0.03 | 0.00 | 68 | 1019.2 |
| 20260502230019 | 11 | 0 | 3.2 | 12.9 | 0.00 | 0.03 | 0.00 | 69 | 1019.2 |
| 20260502225018 | 11 | 0 | 4.8 | 14.5 | 0.00 | 0.03 | 0.00 | 70 | 1019.4 |
| 20260502224019 | 11 | 0 | 4.8 | 16.1 | 0.00 | 0.03 | 0.00 | 70 | 1019.7 |
| 20260502223040 | 11 | 0 | 6.4 | 14.5 | 0.00 | 0.03 | 0.00 | 71 | 1019.3 |
| 20260502222018 | 11 | 0 | 6.4 | 20.9 | 0.00 | 0.03 | 0.00 | 73 | 1019.6 |
| 20260502221042 | 11 | 0 | 3.2 | 14.5 | 0.00 | 0.03 | 0.00 | 73 | 1020.1 |
| 20260502220017 | 11 | 0 | 4.8 | 14.5 | 0.00 | 0.03 | 0.00 | 72 | 1020.2 |
| 20260502215018 | 12 | 0 | 4.8 | 16.1 | 0.00 | 0.05 | 0.00 | 71 | 1020.0 |
| 20260502214017 | 12 | 0 | 4.8 | 17.7 | 0.00 | 0.13 | 0.00 | 71 | 1020.0 |
| 20260502213017 | 12 | 0.0 | 0.0 | 0.00 | 0.15 | 0.00 | 71 | 1020.0 | |
| 20260502212040 | 12 | 0.0 | 0.0 | 0.00 | 0.15 | 0.00 | 71 | 1019.8 | |
| 20260502211102 | 12 | 0.0 | 1.6 | 0.00 | 0.18 | 0.00 | 70 | 1019.9 | |
| 20260502210019 | 12 | 0.0 | 3.2 | 0.00 | 0.18 | 0.18 | 70 | 1020.1 | |
| 20260502205018 | 12 | 0.0 | 3.2 | 0.00 | 0.18 | 0.18 | 70 | 1020.1 | |
| 20260502204018 | 12 | 0 | 1.6 | 3.2 | 0.00 | 0.18 | 0.18 | 69 | 1020.3 |
| 20260502203019 | 12 | 0.0 | 0.0 | 0.00 | 0.18 | 0.18 | 69 | 1020.3 |